| time (UTC) | temp F | wind direction | speed knots | gust knots | rain 1hr in | rain 24hr in | rain mn in | humidity % | barometer mb |
| 20260510081716 | 53 | 358 | 2.6 | 2.6 | 0.00 | 0.71 | 0.71 | 98 | 1009.2 |
| 20260510081213 | 53 | 317 | 1.7 | 3.5 | 0.00 | 0.71 | 0.71 | 98 | 1009.1 |
| 20260510080713 | 53 | 349 | 4.3 | 4.3 | 0.00 | 0.71 | 0.71 | 97 | 1009.3 |
| 20260510080209 | 53 | 340 | 1.7 | 4.3 | 0.00 | 0.71 | 0.71 | 98 | 1009.2 |
| 20260510075706 | 53 | 353 | 2.6 | 5.2 | 0.00 | 0.71 | 0.71 | 97 | 1009.1 |
| 20260510075204 | 53 | 339 | 3.5 | 4.3 | 0.00 | 0.71 | 0.71 | 97 | 1008.9 |
| 20260510074700 | 54 | 304 | 1.7 | 2.6 | 0.00 | 0.71 | 0.71 | 97 | 1008.4 |
| 20260510074156 | 54 | 300 | 1.7 | 2.6 | 0.00 | 0.71 | 0.71 | 97 | 1008.5 |
| 20260510073653 | 54 | 214 | 1.7 | 1.7 | 0.00 | 0.71 | 0.71 | 97 | 1008.3 |
| 20260510073149 | 54 | 267 | 0.9 | 2.6 | 0.00 | 0.71 | 0.71 | 97 | 1008.7 |
| 20260510072645 | 54 | 278 | 0.0 | 2.6 | 0.02 | 0.71 | 0.71 | 97 | 1008.5 |
| 20260510072142 | 54 | 230 | 0.9 | 1.7 | 0.02 | 0.71 | 0.71 | 97 | 1008.4 |
| 20260510071638 | 54 | 231 | 1.7 | 1.7 | 0.00 | 0.71 | 0.71 | 97 | 1008.5 |
| 20260510071135 | 54 | 245 | 0.0 | 0.9 | 0.00 | 0.71 | 0.71 | 97 | 1008.5 |
| 20260510070633 | 54 | 336 | 1.7 | 1.7 | 0.00 | 0.71 | 0.71 | 97 | 1008.3 |
| 20260510070130 | 54 | 261 | 0.9 | 1.7 | 0.00 | 0.71 | 0.71 | 97 | 1008.4 |
| 20260510065626 | 54 | 310 | 1.7 | 1.7 | 0.00 | 0.71 | 0.71 | 97 | 1008.3 |
| 20260510065122 | 54 | 285 | 0.9 | 0.9 | 0.00 | 0.71 | 0.71 | 97 | 1008.3 |
| 20260510064618 | 54 | 228 | 0.0 | 1.7 | 0.00 | 0.71 | 0.71 | 97 | 1008.4 |
| 20260510064115 | 54 | 281 | 1.7 | 1.7 | 0.00 | 0.71 | 0.71 | 97 | 1008.3 |
| 20260510063612 | 54 | 212 | 1.7 | 1.7 | 0.00 | 0.71 | 0.71 | 97 | 1008.2 |
| 20260510063109 | 54 | 190 | 0.9 | 1.7 | 0.02 | 0.71 | 0.71 | 97 | 1008.3 |
| 20260510062605 | 54 | 220 | 0.9 | 1.7 | 0.05 | 0.71 | 0.71 | 97 | 1008.9 |
| 20260510062101 | 54 | 161 | 1.7 | 2.6 | 0.02 | 0.70 | 0.70 | 97 | 1009.2 |
| 20260510061557 | 54 | 273 | 2.6 | 7.8 | 0.07 | 0.70 | 0.70 | 98 | 1009.4 |
| 20260510061055 | 53 | 271 | 4.3 | 13.0 | 0.21 | 0.70 | 0.70 | 98 | 1009.7 |
| 20260510060550 | 53 | 301 | 5.2 | 12.2 | 0.12 | 0.69 | 0.69 | 98 | 1010.4 |
| 20260510060047 | 53 | 283 | 1.7 | 3.5 | 0.00 | 0.67 | 0.67 | 98 | 1009.1 |
| 20260510055543 | 53 | 269 | 0.0 | 1.7 | 0.00 | 0.67 | 0.67 | 98 | 1008.8 |
| 20260510055041 | 53 | 355 | 0.9 | 0.9 | 0.00 | 0.67 | 0.67 | 98 | 1008.8 |
| 20260510054537 | 53 | 344 | 1.7 | 1.7 | 0.00 | 0.67 | 0.67 | 98 | 1008.9 |
| 20260510054032 | 53 | 321 | 2.6 | 2.6 | 0.00 | 0.67 | 0.67 | 98 | 1009.0 |
| 20260510053527 | 53 | 347 | 0.9 | 1.7 | 0.00 | 0.67 | 0.67 | 98 | 1008.9 |
| 20260510053024 | 54 | 342 | 1.7 | 1.7 | 0.00 | 0.67 | 0.67 | 98 | 1008.8 |
| 20260510052520 | 54 | 319 | 1.7 | 3.5 | 0.00 | 0.67 | 0.67 | 98 | 1008.8 |
| 20260510052016 | 54 | 286 | 2.6 | 5.2 | 0.00 | 0.67 | 0.67 | 98 | 1009.0 |
| 20260510051512 | 54 | 99 | 0.9 | 1.7 | 0.02 | 0.67 | 0.67 | 98 | 1008.8 |
| 20260510051009 | 54 | 311 | 0.9 | 0.9 | 0.02 | 0.67 | 0.67 | 98 | 1008.9 |
| 20260510050506 | 54 | 338 | 1.7 | 2.6 | 0.02 | 0.66 | 0.66 | 98 | 1009.1 |
| 20260510050003 | 54 | 180 | 0.0 | 2.6 | 0.05 | 0.66 | 0.66 | 98 | 1009.0 |
| 20260510045500 | 54 | 302 | 3.5 | 3.5 | 0.05 | 0.66 | 0.66 | 98 | 1009.7 |
| 20260510044956 | 54 | 332 | 5.2 | 5.2 | 0.02 | 0.65 | 0.65 | 98 | 1009.2 |
| 20260510044453 | 54 | 319 | 3.5 | 3.5 | 0.12 | 0.65 | 0.65 | 98 | 1008.9 |
| 20260510043950 | 54 | 3 | 2.6 | 2.6 | 0.17 | 0.65 | 0.65 | 98 | 1008.8 |
| 20260510043445 | 54 | 48 | 0.0 | 1.7 | 0.12 | 0.63 | 0.63 | 98 | 1008.9 |
| 20260510042944 | 54 | 4 | 0.9 | 1.7 | 0.21 | 0.62 | 0.62 | 98 | 1009.1 |
| 20260510042440 | 54 | 255 | 1.7 | 3.5 | 0.50 | 0.61 | 0.61 | 98 | 1009.1 |
| 20260510041936 | 54 | 302 | 1.7 | 4.3 | 0.54 | 0.57 | 0.57 | 97 | 1009.5 |
| 20260510041433 | 54 | 5 | 4.3 | 4.3 | 0.61 | 0.52 | 0.52 | 97 | 1009.2 |
| 20260510040931 | 54 | 316 | 3.5 | 3.5 | 0.38 | 0.48 | 0.48 | 97 | 1009.2 |
| 20260510040427 | 54 | 286 | 1.7 | 3.5 | 0.02 | 0.42 | 0.42 | 97 | 1009.0 |
| 20260510035923 | 54 | 339 | 0.9 | 1.7 | 0.02 | 0.41 | 0.41 | 97 | 1008.9 |
| 20260510035419 | 54 | 329 | 1.7 | 2.6 | 0.09 | 0.41 | 0.41 | 97 | 1008.8 |
| 20260510034919 | 54 | 332 | 0.0 | 2.6 | 0.05 | 0.41 | 0.41 | 97 | 1008.9 |
| 20260510034418 | 54 | 289 | 1.7 | 2.6 | 0.00 | 0.40 | 0.40 | 97 | 1008.7 |
| 20260510033914 | 54 | 329 | 0.9 | 2.6 | 0.00 | 0.40 | 0.40 | 97 | 1008.4 |
| 20260510033410 | 54 | 271 | 0.0 | 1.7 | 0.00 | 0.40 | 0.40 | 97 | 1008.4 |
| 20260510032907 | 54 | 229 | 0.0 | 0.9 | 0.00 | 0.40 | 0.40 | 97 | 1008.2 |
| 20260510032404 | 54 | 200 | 0.0 | 1.7 | 0.00 | 0.40 | 0.40 | 97 | 1008.2 |
| 20260510031859 | 54 | 209 | 0.9 | 1.7 | 0.00 | 0.40 | 0.40 | 96 | 1008.4 |
| 20260510031355 | 54 | 177 | 0.0 | 0.0 | 0.00 | 0.40 | 0.40 | 96 | 1008.2 |
| 20260510030854 | 54 | 282 | 0.0 | 1.7 | 0.00 | 0.40 | 0.40 | 96 | 1008.5 |
| 20260510030351 | 54 | 230 | 0.0 | 1.7 | 0.00 | 0.40 | 0.40 | 96 | 1008.3 |
| 20260510025849 | 54 | 196 | 0.0 | 1.7 | 0.00 | 0.40 | 0.40 | 96 | 1008.5 |
| 20260510025346 | 54 | 224 | 0.0 | 1.7 | 0.00 | 0.40 | 0.40 | 96 | 1008.7 |
| 20260510024843 | 55 | 317 | 1.7 | 1.7 | 0.00 | 0.40 | 0.40 | 96 | 1008.8 |
| 20260510024340 | 55 | 335 | 0.0 | 0.9 | 0.02 | 0.40 | 0.40 | 96 | 1008.8 |
| 20260510023836 | 55 | 91 | 0.9 | 0.9 | 0.02 | 0.40 | 0.40 | 96 | 1008.8 |
| 20260510023332 | 55 | 287 | 0.0 | 1.7 | 0.02 | 0.39 | 0.39 | 96 | 1008.5 |
| 20260510022830 | 55 | 221 | 0.0 | 0.9 | 0.12 | 0.39 | 0.39 | 96 | 1009.0 |
| 20260510022329 | 55 | 159 | 0.0 | 1.7 | 0.17 | 0.39 | 0.39 | 95 | 1009.0 |
| 20260510021828 | 55 | 265 | 2.6 | 4.3 | 0.19 | 0.37 | 0.37 | 95 | 1009.4 |
| 20260510021327 | 55 | 5 | 2.6 | 7.0 | 0.26 | 0.36 | 0.36 | 95 | 1009.6 |
| 20260510020823 | 55 | 353 | 1.7 | 7.8 | 0.35 | 0.34 | 0.34 | 94 | 1009.5 |
| 20260510020322 | 55 | 25 | 7.8 | 7.8 | 0.40 | 0.32 | 0.32 | 94 | 1009.4 |
| 20260510015819 | 55 | 353 | 4.3 | 10.4 | 0.31 | 0.28 | 0.28 | 93 | 1009.5 |
| 20260510015315 | 55 | 307 | 7.0 | 9.6 | 0.26 | 0.25 | 0.25 | 93 | 1009.2 |
| 20260510014816 | 55 | 316 | 9.6 | 13.0 | 0.80 | 0.22 | 0.22 | 91 | 1008.9 |
| 20260510014313 | 56 | 320 | 10.4 | 15.6 | 0.97 | 0.20 | 0.20 | 88 | 1008.9 |
| 20260510013809 | 59 | 348 | 7.8 | 16.5 | 0.26 | 0.08 | 0.08 | 79 | 1008.5 |
| 20260510013306 | 62 | 283 | 8.7 | 20.0 | 0.02 | 0.04 | 0.04 | 68 | 1008.2 |
| 20260510012801 | 63 | 290 | 6.1 | 7.0 | 0.00 | 0.04 | 0.04 | 63 | 1007.1 |
| 20260510012301 | 63 | 193 | 2.6 | 7.8 | 0.00 | 0.04 | 0.04 | 62 | 1006.6 |
| 20260510011800 | 62 | 259 | 0.9 | 2.6 | 0.00 | 0.04 | 0.04 | 63 | 1006.7 |
| 20260510011256 | 62 | 192 | 1.7 | 3.5 | 0.00 | 0.04 | 0.04 | 62 | 1006.4 |
| 20260510010753 | 62 | 199 | 1.7 | 3.5 | 0.00 | 0.04 | 0.04 | 62 | 1006.1 |
| 20260510010250 | 62 | 175 | 2.6 | 4.3 | 0.00 | 0.04 | 0.04 | 62 | 1006.1 |
| 20260510005747 | 63 | 185 | 2.6 | 2.6 | 0.00 | 0.04 | 0.04 | 62 | 1006.3 |
| 20260510005243 | 63 | 164 | 1.7 | 3.5 | 0.00 | 0.04 | 0.04 | 61 | 1006.6 |
| 20260510004741 | 63 | 198 | 0.9 | 2.6 | 0.00 | 0.04 | 0.04 | 60 | 1006.3 |
| 20260510004238 | 63 | 187 | 1.7 | 2.6 | 0.00 | 0.04 | 0.04 | 61 | 1006.4 |
| 20260510003736 | 63 | 192 | 1.7 | 3.5 | 0.00 | 0.04 | 0.04 | 60 | 1006.1 |
| 20260510003232 | 64 | 209 | 1.7 | 3.5 | 0.00 | 0.04 | 0.04 | 59 | 1006.2 |
| 20260510002731 | 64 | 203 | 2.6 | 3.5 | 0.00 | 0.04 | 0.04 | 58 | 1006.3 |
| 20260510002228 | 64 | 218 | 4.3 | 4.3 | 0.00 | 0.04 | 0.04 | 58 | 1006.1 |
| 20260510001725 | 64 | 161 | 1.7 | 8.7 | 0.00 | 0.04 | 0.04 | 57 | 1006.0 |
| 20260510001224 | 65 | 203 | 2.6 | 6.1 | 0.00 | 0.04 | 0.04 | 57 | 1006.0 |
| 20260510000719 | 65 | 201 | 4.3 | 7.8 | 0.00 | 0.04 | 0.04 | 56 | 1006.1 |
| 20260510000218 | 66 | 202 | 2.6 | 3.5 | 0.00 | 0.04 | 0.04 | 55 | 1006.0 |
| 20260509235713 | 66 | 229 | 4.3 | 6.1 | 0.00 | 0.04 | 0.04 | 54 | 1005.7 |
| 20260509235210 | 66 | 244 | 0.9 | 3.5 | 0.00 | 0.04 | 0.04 | 55 | 1005.8 |
| 20260509234706 | 66 | 211 | 0.9 | 4.3 | 0.00 | 0.04 | 0.04 | 54 | 1005.8 |
| 20260509234203 | 67 | 243 | 2.6 | 10.4 | 0.00 | 0.04 | 0.04 | 54 | 1005.8 |
| 20260509233701 | 67 | 187 | 2.6 | 11.3 | 0.00 | 0.04 | 0.04 | 53 | 1005.7 |
| 20260509233159 | 67 | 233 | 5.2 | 7.8 | 0.00 | 0.04 | 0.04 | 52 | 1005.6 |
| 20260509232654 | 67 | 229 | 6.1 | 13.9 | 0.00 | 0.04 | 0.04 | 52 | 1005.6 |
| 20260509232151 | 67 | 179 | 3.5 | 10.4 | 0.00 | 0.04 | 0.04 | 52 | 1005.5 |
| 20260509231648 | 68 | 192 | 2.6 | 6.1 | 0.00 | 0.04 | 0.04 | 53 | 1005.6 |
| 20260509231145 | 68 | 218 | 4.3 | 12.2 | 0.00 | 0.04 | 0.04 | 52 | 1005.5 |
| 20260509230642 | 68 | 239 | 6.1 | 6.1 | 0.00 | 0.04 | 0.04 | 53 | 1005.5 |
| 20260509230139 | 68 | 181 | 2.6 | 5.2 | 0.00 | 0.04 | 0.04 | 53 | 1005.6 |
| 20260509225635 | 68 | 193 | 4.3 | 5.2 | 0.00 | 0.04 | 0.04 | 53 | 1005.7 |
| 20260509225131 | 68 | 234 | 3.5 | 5.2 | 0.00 | 0.04 | 0.04 | 53 | 1005.7 |
| 20260509224626 | 68 | 229 | 7.0 | 11.3 | 0.00 | 0.04 | 0.04 | 52 | 1005.9 |
| 20260509224123 | 68 | 210 | 2.6 | 14.8 | 0.00 | 0.04 | 0.04 | 52 | 1005.7 |
| 20260509223620 | 68 | 237 | 7.8 | 11.3 | 0.00 | 0.04 | 0.04 | 51 | 1005.5 |
| 20260509223118 | 68 | 223 | 6.1 | 14.8 | 0.00 | 0.04 | 0.04 | 51 | 1005.8 |
| 20260509222614 | 68 | 186 | 2.6 | 7.0 | 0.00 | 0.04 | 0.04 | 51 | 1005.7 |
| 20260509222110 | 69 | 169 | 4.3 | 9.6 | 0.00 | 0.04 | 0.04 | 52 | 1005.7 |
| 20260509221606 | 69 | 197 | 1.7 | 8.7 | 0.00 | 0.04 | 0.04 | 52 | 1005.5 |
| 20260509221102 | 69 | 243 | 2.6 | 8.7 | 0.00 | 0.04 | 0.04 | 53 | 1005.6 |
| 20260509220558 | 69 | 184 | 3.5 | 12.2 | 0.00 | 0.04 | 0.04 | 51 | 1005.3 |
| 20260509220054 | 69 | 193 | 1.7 | 5.2 | 0.00 | 0.04 | 0.04 | 54 | 1005.6 |
| 20260509215549 | 68 | 201 | 3.5 | 15.6 | 0.00 | 0.04 | 0.04 | 52 | 1005.6 |
| 20260509215047 | 69 | 221 | 5.2 | 6.1 | 0.00 | 0.04 | 0.04 | 54 | 1005.8 |
| 20260509214544 | 69 | 165 | 3.5 | 7.8 | 0.00 | 0.04 | 0.04 | 52 | 1005.6 |
| 20260509214041 | 69 | 235 | 4.3 | 7.0 | 0.00 | 0.04 | 0.04 | 53 | 1005.7 |
| 20260509213537 | 69 | 146 | 1.7 | 6.1 | 0.00 | 0.04 | 0.04 | 51 | 1005.7 |
| 20260509213034 | 69 | 183 | 1.7 | 7.8 | 0.00 | 0.04 | 0.04 | 54 | 1005.7 |
| 20260509212531 | 69 | 247 | 1.7 | 7.0 | 0.00 | 0.04 | 0.04 | 54 | 1005.6 |
| 20260509212028 | 68 | 259 | 5.2 | 9.6 | 0.00 | 0.04 | 0.04 | 52 | 1005.9 |
| 20260509211524 | 68 | 227 | 9.6 | 11.3 | 0.00 | 0.04 | 0.04 | 53 | 1005.9 |
| 20260509211021 | 67 | 231 | 5.2 | 7.8 | 0.00 | 0.04 | 0.04 | 56 | 1006.0 |
| 20260509210518 | 68 | 215 | 5.2 | 13.9 | 0.00 | 0.04 | 0.04 | 52 | 1005.9 |
| 20260509210014 | 68 | 222 | 3.5 | 4.3 | 0.00 | 0.04 | 0.04 | 55 | 1006.0 |
| 20260509205508 | 68 | 168 | 1.7 | 5.2 | 0.00 | 0.04 | 0.04 | 54 | 1005.9 |
| 20260509205004 | 69 | 195 | 3.5 | 11.3 | 0.00 | 0.04 | 0.04 | 51 | 1006.2 |
| 20260509204500 | 69 | 217 | 7.8 | 8.7 | 0.00 | 0.04 | 0.04 | 53 | 1006.1 |
| 20260509203957 | 70 | 196 | 1.7 | 5.2 | 0.00 | 0.04 | 0.04 | 52 | 1006.4 |
| 20260509203452 | 68 | 258 | 3.5 | 3.5 | 0.00 | 0.04 | 0.04 | 53 | 1006.4 |
| 20260509202951 | 68 | 246 | 4.3 | 12.2 | 0.00 | 0.04 | 0.04 | 53 | 1006.2 |
| 20260509202446 | 68 | 237 | 4.3 | 14.8 | 0.00 | 0.04 | 0.04 | 52 | 1006.4 |
| 20260509201941 | 68 | 248 | 7.8 | 13.9 | 0.00 | 0.04 | 0.04 | 56 | 1006.6 |
| 20260509201437 | 67 | 205 | 6.1 | 9.6 | 0.00 | 0.04 | 0.04 | 56 | 1006.6 |
| 20260509200934 | 68 | 219 | 4.3 | 10.4 | 0.00 | 0.04 | 0.04 | 55 | 1006.6 |
| 20260509200434 | 67 | 179 | 0.0 | 8.7 | 0.00 | 0.04 | 0.04 | 56 | 1006.7 |
| 20260509195931 | 67 | 225 | 7.0 | 13.0 | 0.00 | 0.04 | 0.04 | 56 | 1006.7 |
| 20260509195427 | 66 | 220 | 7.8 | 11.3 | 0.00 | 0.04 | 0.04 | 59 | 1006.8 |
| 20260509194926 | 66 | 232 | 2.6 | 7.0 | 0.00 | 0.04 | 0.04 | 58 | 1006.9 |
| 20260509194422 | 67 | 223 | 13.0 | 13.9 | 0.00 | 0.04 | 0.04 | 57 | 1006.9 |
| 20260509193920 | 67 | 248 | 2.6 | 7.8 | 0.00 | 0.04 | 0.04 | 58 | 1007.0 |
| 20260509193419 | 66 | 169 | 2.6 | 7.8 | 0.00 | 0.04 | 0.04 | 58 | 1006.9 |
| 20260509192915 | 65 | 227 | 10.4 | 13.9 | 0.00 | 0.04 | 0.04 | 62 | 1007.2 |
| 20260509192411 | 66 | 220 | 7.0 | 11.3 | 0.00 | 0.04 | 0.04 | 59 | 1007.2 |
| 20260509191907 | 67 | 242 | 5.2 | 11.3 | 0.00 | 0.04 | 0.04 | 58 | 1007.1 |
| 20260509191403 | 66 | 191 | 4.3 | 13.9 | 0.00 | 0.04 | 0.04 | 59 | 1007.0 |
| 20260509190859 | 66 | 228 | 4.3 | 9.6 | 0.00 | 0.04 | 0.04 | 61 | 1007.1 |
| 20260509190356 | 66 | 226 | 3.5 | 7.8 | 0.00 | 0.04 | 0.04 | 64 | 1007.3 |
| 20260509185853 | 65 | 227 | 7.8 | 15.6 | 0.00 | 0.04 | 0.04 | 63 | 1007.3 |
| 20260509185350 | 64 | 175 | 2.6 | 8.7 | 0.00 | 0.04 | 0.04 | 66 | 1007.3 |
| 20260509184847 | 64 | 214 | 7.0 | 13.9 | 0.00 | 0.04 | 0.04 | 64 | 1007.4 |
| 20260509184344 | 64 | 226 | 4.3 | 8.7 | 0.00 | 0.04 | 0.04 | 62 | 1007.3 |
| 20260509183841 | 64 | 211 | 6.1 | 13.0 | 0.00 | 0.04 | 0.04 | 66 | 1007.3 |
| 20260509183336 | 64 | 162 | 4.3 | 6.1 | 0.00 | 0.04 | 0.04 | 66 | 1007.5 |
| 20260509182832 | 64 | 219 | 9.6 | 10.4 | 0.00 | 0.04 | 0.04 | 65 | 1007.5 |
| 20260509182329 | 64 | 199 | 7.8 | 9.6 | 0.00 | 0.04 | 0.04 | 66 | 1007.5 |
| 20260509181827 | 63 | 240 | 5.2 | 5.2 | 0.00 | 0.04 | 0.04 | 71 | 1007.7 |
| 20260509181324 | 62 | 229 | 5.2 | 7.8 | 0.00 | 0.04 | 0.04 | 67 | 1007.7 |
| 20260509180821 | 62 | 222 | 3.5 | 7.8 | 0.00 | 0.04 | 0.04 | 67 | 1007.7 |
| 20260509180317 | 63 | 240 | 7.0 | 7.8 | 0.00 | 0.04 | 0.04 | 65 | 1007.6 |
| 20260509175814 | 63 | 233 | 5.2 | 10.4 | 0.00 | 0.04 | 0.04 | 66 | 1007.6 |
| 20260509175310 | 63 | 211 | 2.6 | 6.1 | 0.00 | 0.04 | 0.04 | 67 | 1007.5 |
| 20260509174806 | 61 | 196 | 7.0 | 12.2 | 0.00 | 0.04 | 0.04 | 67 | 1007.8 |
| 20260509174302 | 61 | 237 | 9.6 | 13.0 | 0.00 | 0.04 | 0.04 | 69 | 1007.9 |
| 20260509173758 | 62 | 216 | 8.7 | 11.3 | 0.00 | 0.04 | 0.04 | 68 | 1007.9 |
| 20260509173253 | 61 | 237 | 3.5 | 7.0 | 0.00 | 0.04 | 0.04 | 72 | 1007.8 |
| 20260509172749 | 60 | 249 | 1.7 | 7.8 | 0.00 | 0.04 | 0.04 | 72 | 1007.8 |
| 20260509172247 | 60 | 232 | 6.1 | 10.4 | 0.00 | 0.04 | 0.04 | 72 | 1008.0 |
| 20260509171742 | 60 | 222 | 8.7 | 12.2 | 0.00 | 0.04 | 0.04 | 71 | 1007.8 |
| 20260509171238 | 60 | 227 | 4.3 | 9.6 | 0.00 | 0.04 | 0.04 | 73 | 1007.7 |
| 20260509170735 | 61 | 220 | 7.8 | 11.3 | 0.00 | 0.04 | 0.04 | 73 | 1007.9 |
| 20260509170231 | 61 | 243 | 2.6 | 7.0 | 0.00 | 0.04 | 0.04 | 74 | 1007.8 |
| 20260509165730 | 60 | 201 | 0.0 | 7.8 | 0.00 | 0.04 | 0.04 | 73 | 1007.7 |
| 20260509165225 | 60 | 259 | 7.8 | 8.7 | 0.00 | 0.04 | 0.04 | 73 | 1007.5 |
| 20260509164721 | 59 | 121 | 1.7 | 7.8 | 0.00 | 0.04 | 0.04 | 75 | 1007.7 |
| 20260509164217 | 59 | 182 | 4.3 | 8.7 | 0.00 | 0.04 | 0.04 | 75 | 1007.6 |
| 20260509163715 | 59 | 181 | 5.2 | 8.7 | 0.00 | 0.04 | 0.04 | 75 | 1007.6 |
| 20260509163211 | 59 | 211 | 4.3 | 11.3 | 0.00 | 0.04 | 0.04 | 75 | 1007.8 |
| 20260509162709 | 59 | 238 | 7.0 | 7.8 | 0.00 | 0.04 | 0.04 | 76 | 1007.5 |
| 20260509162204 | 60 | 178 | 2.6 | 8.7 | 0.00 | 0.04 | 0.04 | 75 | 1007.4 |
| 20260509161700 | 60 | 212 | 6.1 | 7.8 | 0.00 | 0.04 | 0.04 | 75 | 1007.6 |
| 20260509161155 | 60 | 159 | 1.7 | 7.0 | 0.00 | 0.04 | 0.04 | 76 | 1007.5 |
| 20260509160651 | 60 | 236 | 4.3 | 11.3 | 0.00 | 0.04 | 0.04 | 75 | 1007.4 |
| 20260509160147 | 60 | 268 | 3.5 | 5.2 | 0.00 | 0.04 | 0.04 | 76 | 1007.4 |
| 20260509155643 | 60 | 202 | 4.3 | 6.1 | 0.00 | 0.04 | 0.04 | 76 | 1007.4 |
| 20260509155140 | 60 | 190 | 1.7 | 5.2 | 0.00 | 0.04 | 0.04 | 77 | 1007.2 |
| 20260509154635 | 60 | 165 | 2.6 | 6.1 | 0.00 | 0.04 | 0.04 | 77 | 1007.4 |
| 20260509154133 | 60 | 230 | 3.5 | 7.0 | 0.00 | 0.04 | 0.04 | 77 | 1007.3 |
| 20260509153630 | 60 | 171 | 3.5 | 4.3 | 0.00 | 0.04 | 0.04 | 80 | 1007.3 |
| 20260509153126 | 59 | 225 | 5.2 | 8.7 | 0.00 | 0.04 | 0.04 | 79 | 1007.2 |
| 20260509152622 | 58 | 190 | 2.6 | 5.2 | 0.00 | 0.04 | 0.04 | 83 | 1007.1 |
| 20260509152120 | 58 | 148 | 1.7 | 7.8 | 0.00 | 0.04 | 0.04 | 80 | 1007.2 |
| 20260509151616 | 58 | 247 | 1.7 | 10.4 | 0.00 | 0.04 | 0.04 | 81 | 1007.4 |
| 20260509151114 | 58 | 226 | 0.9 | 8.7 | 0.00 | 0.04 | 0.04 | 85 | 1007.3 |
| 20260509150611 | 57 | 207 | 4.3 | 7.0 | 0.00 | 0.04 | 0.04 | 87 | 1007.4 |
| 20260509150109 | 56 | 190 | 5.2 | 7.8 | 0.00 | 0.04 | 0.04 | 90 | 1007.3 |
| 20260509145605 | 56 | 180 | 5.2 | 7.0 | 0.00 | 0.04 | 0.04 | 90 | 1007.3 |
| 20260509145100 | 55 | 183 | 1.7 | 3.5 | 0.00 | 0.04 | 0.04 | 93 | 1007.3 |
| 20260509144558 | 54 | 194 | 1.7 | 3.5 | 0.00 | 0.04 | 0.04 | 92 | 1007.3 |
| 20260509144054 | 54 | 185 | 0.0 | 6.1 | 0.00 | 0.04 | 0.04 | 93 | 1007.6 |
| 20260509143551 | 53 | 222 | 6.1 | 7.0 | 0.00 | 0.04 | 0.04 | 94 | 1007.8 |
| 20260509143049 | 53 | 176 | 0.9 | 3.5 | 0.00 | 0.04 | 0.04 | 94 | 1007.6 |
| 20260509142544 | 53 | 252 | 1.7 | 2.6 | 0.00 | 0.04 | 0.04 | 95 | 1007.7 |
| 20260509142041 | 53 | 229 | 1.7 | 5.2 | 0.00 | 0.04 | 0.04 | 95 | 1007.5 |
| 20260509141537 | 53 | 261 | 2.6 | 4.3 | 0.00 | 0.04 | 0.04 | 95 | 1007.8 |
| 20260509141034 | 52 | 151 | 1.7 | 2.6 | 0.00 | 0.04 | 0.04 | 96 | 1007.6 |
| 20260509140531 | 52 | 196 | 0.0 | 4.3 | 0.00 | 0.04 | 0.04 | 96 | 1007.5 |
| 20260509140029 | 52 | 183 | 1.7 | 3.5 | 0.00 | 0.04 | 0.04 | 96 | 1007.7 |
| 20260509135525 | 52 | 216 | 1.7 | 3.5 | 0.00 | 0.04 | 0.04 | 97 | 1007.7 |
| 20260509135023 | 52 | 158 | 0.0 | 1.7 | 0.00 | 0.04 | 0.04 | 97 | 1007.7 |
| 20260509134520 | 52 | 185 | 0.0 | 2.6 | 0.00 | 0.04 | 0.04 | 97 | 1007.7 |
| 20260509134018 | 52 | 124 | 0.0 | 3.5 | 0.00 | 0.04 | 0.04 | 97 | 1007.6 |
| 20260509133514 | 52 | 204 | 0.0 | 5.2 | 0.00 | 0.04 | 0.04 | 97 | 1007.6 |
| 20260509133012 | 51 | 185 | 1.7 | 7.8 | 0.00 | 0.04 | 0.04 | 97 | 1007.7 |
| 20260509132510 | 51 | 198 | 2.6 | 4.3 | 0.02 | 0.04 | 0.04 | 97 | 1007.7 |
| 20260509132008 | 51 | 201 | 1.7 | 2.6 | 0.02 | 0.04 | 0.04 | 97 | 1007.6 |
| 20260509131504 | 51 | 264 | 1.7 | 2.6 | 0.00 | 0.03 | 0.03 | 97 | 1007.7 |
| 20260509131001 | 51 | 245 | 0.9 | 3.5 | 0.02 | 0.03 | 0.03 | 97 | 1007.7 |
| 20260509130456 | 51 | 183 | 3.5 | 4.3 | 0.02 | 0.03 | 0.03 | 97 | 1007.7 |
| 20260509125953 | 51 | 205 | 2.6 | 2.6 | 0.00 | 0.03 | 0.03 | 97 | 1007.7 |
| 20260509125450 | 51 | 190 | 1.7 | 1.7 | 0.00 | 0.03 | 0.03 | 97 | 1007.8 |
| 20260509124945 | 51 | 171 | 1.7 | 2.6 | 0.00 | 0.03 | 0.03 | 97 | 1007.7 |
| 20260509124443 | 51 | 174 | 0.9 | 1.7 | 0.02 | 0.03 | 0.03 | 97 | 1007.9 |
| 20260509123940 | 51 | 245 | 2.6 | 5.2 | 0.02 | 0.03 | 0.03 | 97 | 1008.0 |
| 20260509123438 | 51 | 159 | 1.7 | 2.6 | 0.00 | 0.02 | 0.02 | 97 | 1007.9 |
| 20260509122933 | 51 | 235 | 2.6 | 3.5 | 0.02 | 0.02 | 0.02 | 97 | 1007.7 |
| 20260509122430 | 51 | 206 | 1.7 | 2.6 | 0.05 | 0.02 | 0.02 | 97 | 1007.9 |
| 20260509121927 | 51 | 166 | 1.7 | 3.5 | 0.02 | 0.02 | 0.02 | 97 | 1008.0 |
| 20260509121424 | 51 | 186 | 1.7 | 3.5 | 0.02 | 0.02 | 0.02 | 97 | 1008.1 |
| 20260509120922 | 51 | 177 | 1.7 | 3.5 | 0.02 | 0.01 | 0.01 | 97 | 1008.1 |
| 20260509120420 | 51 | 158 | 1.7 | 2.6 | 0.02 | 0.01 | 0.01 | 97 | 1007.9 |
| 20260509115918 | 51 | 174 | 1.7 | 2.6 | 0.02 | 0.01 | 0.01 | 97 | 1007.9 |
| 20260509115414 | 51 | 238 | 1.7 | 3.5 | 0.02 | 0.01 | 0.01 | 97 | 1008.0 |
| 20260509114912 | 51 | 180 | 2.6 | 6.1 | 0.00 | 0.00 | 0.00 | 97 | 1007.9 |
| 20260509114411 | 51 | 208 | 5.2 | 5.2 | 0.00 | 0.00 | 0.00 | 97 | 1007.9 |
| 20260509113910 | 50 | 197 | 1.7 | 2.6 | 0.00 | 0.00 | 0.00 | 97 | 1008.0 |
| 20260509113407 | 50 | 145 | 0.9 | 3.5 | 0.00 | 0.00 | 0.00 | 97 | 1007.7 |
| 20260509112903 | 50 | 243 | 2.6 | 2.6 | 0.00 | 0.00 | 0.00 | 97 | 1007.8 |
| 20260509112400 | 50 | 147 | 0.9 | 2.6 | 0.00 | 0.00 | 0.00 | 97 | 1007.7 |
| 20260509111858 | 50 | 190 | 0.0 | 1.7 | 0.02 | 0.00 | 0.00 | 97 | 1007.6 |
| 20260509111354 | 50 | 240 | 1.7 | 3.5 | 0.02 | 0.00 | 0.00 | 97 | 1007.7 |
| 20260509110852 | 50 | 203 | 1.7 | 2.6 | 0.00 | 0.00 | 0.00 | 97 | 1007.6 |
| 20260509110348 | 50 | 183 | 0.9 | 3.5 | 0.00 | 0.00 | 0.00 | 97 | 1007.8 |
| 20260509105846 | 50 | 193 | 0.0 | 2.6 | 0.02 | 0.13 | 0.13 | 97 | 1007.5 |
| 20260509105344 | 50 | 197 | 0.9 | 2.6 | 0.05 | 0.13 | 0.13 | 97 | 1007.8 |
| 20260509104840 | 50 | 235 | 0.9 | 4.3 | 0.02 | 0.13 | 0.13 | 97 | 1007.6 |
| 20260509104337 | 50 | 154 | 0.9 | 2.6 | 0.02 | 0.13 | 0.13 | 97 | 1007.6 |
| 20260509103835 | 50 | 183 | 0.9 | 1.7 | 0.02 | 0.13 | 0.13 | 97 | 1007.5 |
| 20260509103332 | 50 | 211 | 2.6 | 4.3 | 0.00 | 0.12 | 0.12 | 97 | 1007.4 |
| 20260509102831 | 50 | 198 | 1.7 | 1.7 | 0.00 | 0.12 | 0.12 | 97 | 1007.7 |
| 20260509102328 | 50 | 193 | 0.9 | 3.5 | 0.00 | 0.12 | 0.12 | 97 | 1007.5 |
| 20260509101823 | 50 | 201 | 1.7 | 1.7 | 0.00 | 0.12 | 0.12 | 98 | 1007.7 |
| 20260509101320 | 50 | 177 | 1.7 | 1.7 | 0.00 | 0.12 | 0.12 | 98 | 1007.4 |
| 20260509100818 | 50 | 167 | 0.0 | 1.7 | 0.00 | 0.12 | 0.12 | 98 | 1007.7 |
| 20260509100315 | 50 | 228 | 1.7 | 3.5 | 0.00 | 0.12 | 0.12 | 98 | 1007.4 |
| 20260509095811 | 49 | 178 | 1.7 | 1.7 | 0.00 | 0.12 | 0.12 | 98 | 1007.3 |
| 20260509095309 | 49 | 168 | 0.9 | 1.7 | 0.00 | 0.12 | 0.12 | 98 | 1007.6 |
| 20260509094806 | 49 | 147 | 0.0 | 4.3 | 0.00 | 0.12 | 0.12 | 98 | 1007.5 |
| 20260509094302 | 49 | 177 | 0.9 | 1.7 | 0.00 | 0.12 | 0.12 | 98 | 1007.5 |
| 20260509093800 | 49 | 177 | 1.7 | 1.7 | 0.00 | 0.12 | 0.12 | 98 | 1007.3 |
| 20260509093257 | 49 | 190 | 1.7 | 1.7 | 0.00 | 0.12 | 0.12 | 98 | 1007.6 |
| 20260509092755 | 49 | 180 | 1.7 | 1.7 | 0.00 | 0.12 | 0.12 | 98 | 1007.8 |
| 20260509092253 | 49 | 170 | 0.0 | 0.9 | 0.00 | 0.12 | 0.12 | 98 | 1007.9 |
| 20260509091751 | 49 | 108 | 0.9 | 0.9 | 0.00 | 0.12 | 0.12 | 98 | 1007.9 |
| 20260509091247 | 49 | 76 | 0.0 | 0.9 | 0.00 | 0.12 | 0.12 | 98 | 1008.0 |
| 20260509090744 | 49 | 293 | 1.7 | 1.7 | 0.00 | 0.12 | 0.12 | 98 | 1008.2 |
| 20260509090241 | 49 | 293 | 0.9 | 0.9 | 0.00 | 0.12 | 0.12 | 98 | 1008.0 |
| 20260509085739 | 49 | 287 | 0.0 | 1.7 | 0.00 | 0.12 | 0.12 | 98 | 1008.2 |
| 20260509085236 | 49 | 323 | 0.0 | 0.9 | 0.00 | 0.12 | 0.12 | 98 | 1007.9 |
| 20260509084733 | 49 | 221 | 0.0 | 1.7 | 0.00 | 0.12 | 0.12 | 98 | 1008.2 |
| 20260509084229 | 49 | 216 | 0.0 | 0.9 | 0.00 | 0.12 | 0.12 | 98 | 1008.0 |
| 20260509083728 | 49 | 69 | 0.0 | 0.0 | 0.00 | 0.12 | 0.12 | 98 | 1008.1 |
| 20260509083224 | 49 | 93 | 0.0 | 0.9 | 0.00 | 0.12 | 0.12 | 98 | 1008.1 |
| 20260509082720 | 49 | 319 | 0.0 | 0.9 | 0.02 | 0.12 | 0.12 | 98 | 1008.3 |
| 20260509082217 | 49 | 47 | 0.0 | 0.9 | 0.02 | 0.12 | 0.12 | 98 | 1008.4 |